TimePST,TemperatureF,Dew PointF,Humidity,Sea Level PressureIn,VisibilityMPH,Wind Direction,Wind SpeedMPH,Gust SpeedMPH,PrecipitationIn,Events,Conditions,WindDirDegrees,DateUTC
12:10 AM,32.0,19.4,60,30.17,10.0,SE,5.8,-,N/A,,Clear,130,2013-12-06 08:10:00
12:30 AM,32.0,17.6,55,30.17,10.0,SE,6.9,-,N/A,,Clear,140,2013-12-06 08:30:00
12:50 AM,28.4,17.6,64,30.17,10.0,SE,6.9,-,N/A,,Clear,140,2013-12-06 08:50:00
1:10 AM,30.2,19.4,64,30.17,10.0,SE,5.8,-,N/A,,Clear,130,2013-12-06 09:10:00
1:30 AM,30.2,19.4,64,30.17,10.0,SE,5.8,-,N/A,,Clear,140,2013-12-06 09:30:00
1:50 AM,32.0,19.4,60,30.18,10.0,ESE,3.5,-,N/A,,Clear,110,2013-12-06 09:50:00
2:10 AM,32.0,19.4,60,30.18,10.0,SE,4.6,-,N/A,,Clear,130,2013-12-06 10:10:00
2:30 AM,30.2,19.4,64,30.18,10.0,SE,4.6,-,N/A,,Clear,130,2013-12-06 10:30:00
2:50 AM,30.2,19.4,64,30.18,10.0,SE,5.8,-,N/A,,Clear,130,2013-12-06 10:50:00
3:10 AM,28.4,19.4,69,30.19,10.0,SE,3.5,-,N/A,,Clear,130,2013-12-06 11:10:00
3:30 AM,30.2,19.4,64,30.19,10.0,ESE,5.8,-,N/A,,Clear,120,2013-12-06 11:30:00
3:50 AM,30.2,19.4,64,30.18,10.0,East,8.1,-,N/A,,Clear,100,2013-12-06 11:50:00
4:10 AM,32.0,21.2,64,30.17,10.0,East,8.1,-,N/A,,Clear,100,2013-12-06 12:10:00
4:30 AM,32.0,21.2,64,30.17,10.0,East,5.8,-,N/A,,Clear,100,2013-12-06 12:30:00
4:50 AM,30.2,21.2,69,30.17,10.0,ESE,5.8,-,N/A,,Clear,120,2013-12-06 12:50:00
5:10 AM,30.2,21.2,69,30.17,10.0,Calm,Calm,-,N/A,,Clear,0,2013-12-06 13:10:00
5:30 AM,28.4,21.2,74,30.18,10.0,Calm,Calm,-,N/A,,Clear,0,2013-12-06 13:30:00
5:50 AM,28.4,21.2,74,30.18,10.0,Calm,Calm,-,N/A,,Clear,0,2013-12-06 13:50:00
6:10 AM,30.2,19.4,64,30.18,10.0,ESE,3.5,-,N/A,,Clear,110,2013-12-06 14:10:00
6:30 AM,30.2,21.2,69,30.18,10.0,SE,3.5,-,N/A,,Clear,130,2013-12-06 14:30:00
6:50 AM,32.0,23.0,69,30.19,10.0,ESE,3.5,-,N/A,,Clear,110,2013-12-06 14:50:00
7:10 AM,26.6,19.4,74,30.19,10.0,WNW,3.5,-,N/A,,Clear,300,2013-12-06 15:10:00
7:30 AM,26.6,19.4,74,30.19,9.0,NW,3.5,-,N/A,,Clear,310,2013-12-06 15:30:00
7:50 AM,26.6,21.2,80,30.21,9.0,WNW,6.9,-,N/A,,Clear,300,2013-12-06 15:50:00
8:10 AM,28.4,23.0,80,30.22,9.0,NW,4.6,-,N/A,,Clear,320,2013-12-06 16:10:00
8:30 AM,32.0,23.0,69,30.23,10.0,NNW,3.5,-,N/A,,Clear,330,2013-12-06 16:30:00
8:50 AM,32.0,23.0,69,30.23,10.0,NW,3.5,-,N/A,,Clear,310,2013-12-06 16:50:00
9:10 AM,33.8,23.0,65,30.24,10.0,Calm,Calm,-,N/A,,Clear,0,2013-12-06 17:10:00
9:30 AM,35.6,23.0,60,30.24,10.0,Calm,Calm,-,N/A,,Clear,0,2013-12-06 17:30:00
9:50 AM,37.4,24.8,60,30.23,10.0,Calm,Calm,-,N/A,,Clear,0,2013-12-06 17:50:00
10:10 AM,39.2,24.8,56,30.23,10.0,ESE,4.6,-,N/A,,Partly Cloudy,120,2013-12-06 18:10:00
10:30 AM,41.0,24.8,53,30.22,10.0,SSE,6.9,-,N/A,,Clear,160,2013-12-06 18:30:00
10:50 AM,42.8,24.8,49,30.22,10.0,SE,8.1,-,N/A,,Clear,140,2013-12-06 18:50:00
11:10 AM,44.6,24.8,46,30.21,10.0,South,8.1,-,N/A,,Clear,190,2013-12-06 19:10:00
11:30 AM,42.8,24.8,49,30.21,10.0,SSW,5.8,-,N/A,,Mostly Cloudy,200,2013-12-06 19:30:00
11:50 AM,44.6,24.8,46,30.20,10.0,South,5.8,-,N/A,,Mostly Cloudy,190,2013-12-06 19:50:00
12:10 PM,44.6,26.6,49,30.18,10.0,South,6.9,-,N/A,,Scattered Clouds,190,2013-12-06 20:10:00
12:30 PM,44.6,26.6,49,30.18,10.0,South,6.9,-,N/A,,Scattered Clouds,180,2013-12-06 20:30:00
12:50 PM,44.6,26.6,49,30.17,10.0,SSW,8.1,-,N/A,,Partly Cloudy,200,2013-12-06 20:50:00
1:10 PM,44.6,26.6,49,30.16,10.0,South,6.9,-,N/A,,Mostly Cloudy,170,2013-12-06 21:10:00
1:30 PM,44.6,26.6,49,30.15,10.0,South,6.9,-,N/A,,Mostly Cloudy,180,2013-12-06 21:30:00
1:50 PM,44.6,26.6,49,30.14,10.0,SSE,6.9,-,N/A,,Overcast,160,2013-12-06 21:50:00
2:10 PM,44.6,26.6,49,30.13,10.0,SSE,6.9,-,N/A,,Mostly Cloudy,160,2013-12-06 22:10:00
2:30 PM,44.6,26.6,49,30.12,10.0,South,9.2,-,N/A,,Scattered Clouds,170,2013-12-06 22:30:00
2:50 PM,46.4,26.6,46,30.12,10.0,South,9.2,-,N/A,,Clear,170,2013-12-06 22:50:00
3:10 PM,46.4,26.6,46,30.12,10.0,South,9.2,-,N/A,,Partly Cloudy,170,2013-12-06 23:10:00
3:30 PM,46.4,26.6,46,30.11,10.0,SE,10.4,-,N/A,,Scattered Clouds,140,2013-12-06 23:30:00
3:50 PM,46.4,26.6,46,30.12,10.0,SSE,6.9,-,N/A,,Scattered Clouds,160,2013-12-06 23:50:00
4:10 PM,46.4,26.6,46,30.11,10.0,SSE,11.5,-,N/A,,Mostly Cloudy,150,2013-12-07 00:10:00
4:30 PM,46.4,28.4,50,30.11,10.0,SE,11.5,20.7,N/A,,Mostly Cloudy,140,2013-12-07 00:30:00
4:50 PM,44.6,30.2,57,30.10,8.0,South,8.1,18.4,N/A,,Overcast,170,2013-12-07 00:50:00
5:10 PM,44.6,32.0,61,30.09,9.0,SSE,12.7,-,N/A,Rain,Light Rain,150,2013-12-07 01:10:00
5:30 PM,44.6,32.0,61,30.09,10.0,SE,11.5,18.4,N/A,,Overcast,140,2013-12-07 01:30:00
5:50 PM,44.6,32.0,61,30.07,10.0,SE,12.7,19.6,N/A,,Overcast,140,2013-12-07 01:50:00
6:10 PM,42.8,32.0,66,30.06,10.0,SE,15.0,20.7,N/A,Rain,Light Rain,130,2013-12-07 02:10:00
6:30 PM,41.0,32.0,70,30.06,8.0,SE,16.1,20.7,N/A,Rain,Light Rain,130,2013-12-07 02:30:00
6:50 PM,41.0,33.8,76,30.05,10.0,ESE,16.1,21.9,N/A,,Overcast,120,2013-12-07 02:50:00
7:10 PM,41.0,33.8,76,30.04,7.0,ESE,13.8,-,N/A,Rain,Light Rain,120,2013-12-07 03:10:00
7:30 PM,41.0,33.8,76,30.04,10.0,SE,12.7,21.9,N/A,Rain,Light Rain,130,2013-12-07 03:30:00
7:50 PM,41.0,35.6,81,30.03,5.0,SSE,19.6,25.3,N/A,Rain,Light Rain,150,2013-12-07 03:50:00
8:10 PM,41.0,35.6,81,30.02,5.0,SSE,17.3,36.8,N/A,Rain,Light Rain,150,2013-12-07 04:10:00
8:30 PM,41.0,33.8,76,30.01,8.0,SSE,20.7,26.5,N/A,,Overcast,160,2013-12-07 04:30:00
8:50 PM,41.0,33.8,76,29.99,5.0,SSE,29.9,39.1,N/A,Rain,Light Rain,150,2013-12-07 04:50:00
9:10 PM,41.0,33.8,76,29.99,5.0,SSE,25.3,34.5,N/A,Rain,Light Rain,160,2013-12-07 05:10:00
9:30 PM,41.0,35.6,81,29.99,4.0,SE,15.0,21.9,N/A,Rain,Light Rain,140,2013-12-07 05:30:00
9:50 PM,41.0,33.8,76,29.98,2.5,SE,23.0,33.4,N/A,Rain,Light Rain,140,2013-12-07 05:50:00
10:10 PM,39.2,35.6,87,29.97,2.0,SE,20.7,32.2,N/A,,Overcast,140,2013-12-07 06:10:00
10:30 PM,39.2,35.6,87,29.96,5.0,SE,20.7,29.9,N/A,,Overcast,140,2013-12-07 06:30:00
10:50 PM,39.2,35.6,87,29.94,2.0,SE,25.3,35.7,N/A,,Overcast,140,2013-12-07 06:50:00
11:10 PM,39.2,35.6,87,29.95,1.8,SSE,25.3,35.7,N/A,,Overcast,150,2013-12-07 07:10:00
11:30 PM,39.2,35.6,87,29.94,1.8,SSE,23.0,34.5,N/A,,Overcast,150,2013-12-07 07:30:00
11:50 PM,39.2,35.6,87,29.93,3.0,SE,21.9,29.9,N/A,,Mostly Cloudy,140,2013-12-07 07:50:00